[[{"header":{"parameterUnit":"m.s-1","parameterCategory":1,"la1":30.2991,"la2":30.254,"lo1":-89.0895,"lo2":-89.0444,"dy":0.0017,"dx":0.0017,"nx":28,"ny":28,"refTime":"2024-04-18T21:00:00:Z","depth":0,"parameterNumber":2,"parameterNumberName":"U-component_of_WINDS"},"data":[0,0,0,0,0,0,0,0,0,0,0,0,0,0,0,0,0,0,0,0,0,0,0,0,0,0,0,0,0,0,0,0,0,0,0,0,0,0,0,0,0,0,0,0,0,0,0,0,0,0,0,0,0,0,0,0,0,0,0.0109,0.011,0,0.0142,0.0142,0.0143,0.0144,0.0144,0.0144,0.0143,0.0178,0.0179,0.018,0,0,0,0,0,0,0,0,0,0,0,0,0,0.0049,0.005,0.0109,0.011,0.011,0.0142,0.0143,0.0143,0.0144,0.0144,0.0144,0.0143,0.0177,0.0179,0.018,0,0,0,0,0,0,0,0,0,0,0,0,0,0.0078,0.0051,0.0109,0.0115,0.0116,0.0142,0.0143,0.0143,0.0145,0.0144,0.0143,0.0143,0.0177,0.0179,0.0181,0.0204,0,0,0.0186,0.0187,0,0,0,0,0,0,0,0,0.0076,0.008,0.0114,0.0115,0.0115,0.0139,0.0134,0.0164,0.0145,0.0134,0.0143,0.0143,0.0165,0.0168,0.0176,0.0206,0.0207,0.0187,0.0188,0.0189,0.0189,0,0,0,0,0,0,0,0.0074,0.0079,0.0122,0.0114,0.0115,0.0116,0.0119,0.014,0.0152,0.0135,0.0135,0.0139,0.0166,0.0174,0.0176,0.0208,0.0187,0.0188,0.0189,0.019,0.0258,0.0259,0,0,0,0,0,0,0.0071,0.0077,0.0121,0.0123,0.0094,0.0117,0.0121,0.0132,0.0152,0.0155,0.0139,0.0138,0.0171,0.0174,0.0178,0.0206,0.0189,0.019,0.0191,0.0258,0.0258,0.0259,0,0,0,0,0,0,0.007,0.0075,0.012,0.01,0.0106,0.0119,0.0131,0.0133,0.0141,0.0155,0.0158,0.0145,0.017,0.0175,0.0197,0.0207,0.0191,0.0193,0.0257,0.0258,0.0259,0.0264,0,0,0,0,0,0,0.0068,0.0075,0.0084,0.0101,0.0107,0.0139,0.0131,0.0134,0.0144,0.0144,0.0162,0.0164,0.017,0.0194,0.0199,0.021,0.0194,0.0256,0.0257,0.0258,0.0263,0.0265,0.0266,0,0,0,0,0,0.0066,0.0084,0.0084,0.0089,0.0118,0.014,0.0143,0.015,0.0145,0.0154,0.0163,0.0163,0.0205,0.0197,0.0202,0.0213,0.0255,0.0257,0.0258,0.0262,0.0264,0.0266,0,0,0,0,0,0,0.0068,0.0086,0.0087,0.011,0.0123,0.014,0.0152,0.0152,0.0168,0.0167,0.0175,0.0179,0.0201,0.0209,0.0199,0.0237,0.023,0.0233,0.0231,0.0233,0.0235,0.0232,0.0196,0,0,0,0,0,0.0071,0.0087,0.0102,0.0121,0.0128,0.0138,0.0148,0.0152,0.0166,0.0171,0.0183,0.0196,0.0213,0.0223,0.0239,0.0264,0.0268,0.0274,0.0276,0.0277,0.028,0.0293,0.0296,0.0264,0.0264,0.0264,0,0,0.0078,0.009,0.0099,0.0122,0.0133,0.0148,0.0143,0.016,0.0172,0.0174,0.0196,0.0204,0.022,0.0244,0.0255,0.0252,0.0289,0.0279,0.028,0.0282,0.0295,0.0298,0.0301,0.0265,0.0265,0.0265,0,0,0.0099,0.0109,0.0126,0.0137,0.0153,0.016,0.0164,0.018,0.0186,0.0208,0.0209,0.0224,0.0252,0.0263,0.0272,0.0297,0.0297,0.0302,0.0312,0.0325,0.0327,0.0329,0.0338,0.0341,0.0304,0.0304,0.0304,0,0.0105,0.0129,0.0135,0.0152,0.0162,0.0164,0.0182,0.0192,0.0212,0.0219,0.0215,0.025,0.0261,0.0287,0.0293,0.0301,0.0306,0.03,0.0326,0.0329,0.0331,0.0339,0.0342,0.0304,0.0304,0.0304,0.0304,0,0.0136,0.0153,0.0165,0.0184,0.0195,0.0213,0.0222,0.0232,0.0235,0.0243,0.0265,0.0278,0.0296,0.0303,0.0306,0.0329,0.0327,0.0324,0.0318,0.0334,0.0342,0.0345,0.0305,0.0305,0.0305,0.0305,0,0,0.0159,0.0181,0.0186,0.0194,0.0212,0.0225,0.0242,0.026,0.0269,0.0283,0.0297,0.0321,0.0319,0.0329,0.0334,0.0345,0.0363,0.0342,0.0342,0.0345,0.039,0.0391,0.0395,0.0364,0.0365,0.0365,0.0388,0,0.0181,0.0212,0.0218,0.0245,0.026,0.0262,0.0277,0.029,0.0297,0.0311,0.0319,0.0336,0.0332,0.0338,0.035,0.0359,0.0373,0.0357,0.0378,0.0379,0.0374,0.0399,0.0401,0.0422,0.0391,0.0392,0.0392,0,0.0212,0.0226,0.0254,0.0269,0.0276,0.0289,0.0306,0.0319,0.0333,0.0338,0.035,0.0353,0.0371,0.0363,0.0388,0.0378,0.0386,0.0392,0.0393,0.0395,0.0386,0.0402,0.0429,0.0432,0.0397,0.0397,0.0397,0,0.0225,0.0251,0.0271,0.0279,0.0297,0.0307,0.0315,0.0328,0.0338,0.0353,0.036,0.0376,0.0385,0.0398,0.0406,0.0399,0.043,0.0423,0.0435,0.0434,0.0441,0.044,0.047,0.0447,0.0447,0.0447,0.0447,0,0.0249,0.0267,0.0278,0.029,0.0309,0.0316,0.0335,0.0343,0.0355,0.0369,0.0372,0.0385,0.0394,0.0409,0.0415,0.0435,0.0439,0.0443,0.0445,0.0443,0.0442,0.0449,0.0447,0.0448,0.0447,0.0447,0.0447,0,0.0268,0.0276,0.0298,0.0314,0.0318,0.0331,0.0345,0.0357,0.0364,0.0382,0.0386,0.0398,0.0415,0.0424,0.0445,0.0449,0.0472,0.0472,0.0467,0.0467,0.0478,0.0477,0.0513,0.0517,0.0491,0.0492,0.0492,0,0.0283,0.0296,0.0313,0.0322,0.033,0.0345,0.0356,0.0363,0.0373,0.039,0.04,0.0418,0.0432,0.0459,0.047,0.0486,0.0487,0.0498,0.0489,0.0487,0.0487,0.0486,0.0487,0.05,0.05,0.05,0.0501,0,0.0308,0.0312,0.0326,0.0342,0.0354,0.0367,0.0379,0.0387,0.0396,0.0408,0.0425,0.0436,0.0458,0.0475,0.0492,0.0501,0.0502,0.0503,0.0507,0.0505,0.0501,0.0503,0.0471,0.0502,0.0502,0.0502,0.0502,0.0502,0.0325,0.0337,0.035,0.0366,0.0376,0.0388,0.04,0.0409,0.0423,0.0441,0.0445,0.0463,0.0477,0.05,0.0509,0.0524,0.0521,0.0526,0.0528,0.0529,0.0529,0.0499,0.0527,0.0527,0.0527,0.0527,0.0527,0,0.0351,0.0359,0.0374,0.0391,0.0404,0.0404,0.0418,0.0428,0.0444,0.0457,0.047,0.049,0.0507,0.0518,0.0535,0.0544,0.0546,0.0549,0.0548,0.055,0.053,0.0525,0.0547,0.0547,0.0547,0.0547,0.0547,0.0547,0.0365,0.0385,0.039,0.0414,0.0423,0.0441,0.0449,0.0459,0.0469,0.0491,0.0505,0.0512,0.0524,0.0542,0.0557,0.056,0.0566,0.0569,0.0572,0.0553,0.0551,0.0549,0.0545,0.057,0.057,0.059,0.059,0.059]},{"header":{"parameterUnit":"m.s-1","parameterCategory":1,"la1":30.2991,"la2":30.254,"lo1":-89.0895,"lo2":-89.0444,"dy":0.0017,"dx":0.0017,"nx":28,"ny":28,"refTime":"2024-04-18T21:00:00:Z","depth":0,"parameterNumber":3,"parameterNumberName":"V-component_of_WINDS"},"data":[0,0,0,0,0,0,0,0,0,0,0,0,0,0,0,0,0,0,0,0,0,0,0,0,0,0,0,0,0,0,0,0,0,0,0,0,0,0,0,0,0,0,0,0,0,0,0,0,0,0,0,0,0,0,0,0,0,0,-0.2177,-0.2177,0,-0.2128,-0.2127,-0.2127,-0.2113,-0.2113,-0.2114,-0.2114,-0.2065,-0.2063,-0.2062,0,0,0,0,0,0,0,0,0,0,0,0,0,-0.2262,-0.226,-0.2177,-0.2177,-0.2176,-0.2128,-0.2127,-0.2127,-0.2113,-0.2113,-0.2114,-0.2114,-0.2065,-0.2064,-0.2062,0,0,0,0,0,0,0,0,0,0,0,0,0,-0.222,-0.226,-0.2178,-0.2164,-0.2162,-0.2128,-0.2127,-0.2127,-0.2113,-0.2113,-0.2114,-0.2114,-0.2066,-0.2064,-0.2061,-0.2039,0,0,-0.2054,-0.2053,0,0,0,0,0,0,0,0,-0.2222,-0.2217,-0.2166,-0.2164,-0.2162,-0.2127,-0.2139,-0.2097,-0.2113,-0.2132,-0.2114,-0.2114,-0.2085,-0.2081,-0.2071,-0.2036,-0.2034,-0.2054,-0.2053,-0.2052,-0.2051,0,0,0,0,0,0,0,-0.2225,-0.2219,-0.2158,-0.2166,-0.2163,-0.216,-0.2155,-0.2131,-0.2107,-0.213,-0.2129,-0.2123,-0.2084,-0.2074,-0.207,-0.2034,-0.2054,-0.2052,-0.2051,-0.205,-0.1978,-0.1977,0,0,0,0,0,0,-0.223,-0.2221,-0.2159,-0.2156,-0.2194,-0.2158,-0.2152,-0.2138,-0.2107,-0.2103,-0.2123,-0.2123,-0.2077,-0.2073,-0.2068,-0.204,-0.2052,-0.2049,-0.2048,-0.1978,-0.1978,-0.1977,0,0,0,0,0,0,-0.2232,-0.2225,-0.2161,-0.2189,-0.218,-0.2157,-0.2141,-0.2137,-0.2126,-0.2102,-0.2097,-0.2116,-0.2078,-0.2072,-0.2046,-0.2038,-0.2048,-0.2046,-0.1979,-0.1978,-0.1978,-0.1982,0,0,0,0,0,0,-0.2235,-0.2226,-0.2216,-0.2188,-0.2179,-0.214,-0.214,-0.2136,-0.2122,-0.2121,-0.2094,-0.209,-0.2077,-0.205,-0.2044,-0.2035,-0.2044,-0.198,-0.1979,-0.1978,-0.1983,-0.1982,-0.1981,0,0,0,0,0,-0.2238,-0.222,-0.2216,-0.2208,-0.2167,-0.2139,-0.2134,-0.2119,-0.2121,-0.2112,-0.2096,-0.2091,-0.204,-0.2047,-0.204,-0.203,-0.198,-0.1979,-0.1978,-0.1983,-0.1982,-0.1981,0,0,0,0,0,0,-0.2248,-0.2216,-0.2211,-0.2184,-0.2164,-0.2137,-0.2124,-0.2118,-0.2098,-0.2098,-0.2081,-0.2075,-0.2051,-0.2038,-0.2047,-0.2007,-0.201,-0.2007,-0.2016,-0.2015,-0.2014,-0.2017,-0.2042,0,0,0,0,0,-0.2247,-0.2226,-0.22,-0.2178,-0.2169,-0.2148,-0.2136,-0.2126,-0.2106,-0.2097,-0.208,-0.206,-0.204,-0.2027,-0.2007,-0.1981,-0.1975,-0.1971,-0.197,-0.1969,-0.1967,-0.1953,-0.1951,-0.1974,-0.1974,-0.1974,0,0,-0.2244,-0.2224,-0.2213,-0.218,-0.2163,-0.2143,-0.2141,-0.212,-0.2105,-0.2094,-0.2069,-0.2056,-0.2033,-0.2007,-0.1995,-0.1996,-0.196,-0.1968,-0.1968,-0.1966,-0.1952,-0.195,-0.1948,-0.1973,-0.1973,-0.1973,0,0,-0.2229,-0.2212,-0.2192,-0.2176,-0.2152,-0.2138,-0.2134,-0.2107,-0.2098,-0.2072,-0.2063,-0.2046,-0.2011,-0.1995,-0.1982,-0.1963,-0.1957,-0.1957,-0.1952,-0.1938,-0.1936,-0.1934,-0.1927,-0.1925,-0.1955,-0.1955,-0.1955,0,-0.223,-0.2198,-0.2183,-0.2162,-0.2148,-0.2137,-0.2117,-0.2102,-0.2073,-0.2063,-0.2065,-0.2021,-0.2005,-0.1975,-0.197,-0.1961,-0.1955,-0.1959,-0.1938,-0.1936,-0.1934,-0.1927,-0.1924,-0.1955,-0.1955,-0.1955,-0.1955,0,-0.22,-0.2179,-0.2166,-0.2137,-0.2121,-0.2101,-0.2083,-0.2069,-0.2062,-0.2048,-0.2023,-0.2003,-0.1979,-0.1971,-0.1964,-0.1941,-0.1942,-0.1941,-0.1943,-0.1932,-0.1925,-0.1922,-0.1955,-0.1955,-0.1955,-0.1955,0,0,-0.2189,-0.2152,-0.2148,-0.2135,-0.2107,-0.209,-0.207,-0.2046,-0.2035,-0.2015,-0.1997,-0.1969,-0.1967,-0.1953,-0.1943,-0.1931,-0.1917,-0.1931,-0.1931,-0.1929,-0.1891,-0.1892,-0.1889,-0.1913,-0.1913,-0.1912,-0.1893,0,-0.2171,-0.2133,-0.2119,-0.2088,-0.2069,-0.2058,-0.2041,-0.2022,-0.2009,-0.1991,-0.1978,-0.1957,-0.1957,-0.1948,-0.1936,-0.1921,-0.1909,-0.1923,-0.1897,-0.1896,-0.1903,-0.1885,-0.1886,-0.1868,-0.189,-0.189,-0.1889,0,-0.2144,-0.2123,-0.2091,-0.2066,-0.2057,-0.2041,-0.2018,-0.2001,-0.198,-0.1972,-0.1956,-0.1947,-0.1926,-0.193,-0.1901,-0.1911,-0.19,-0.1891,-0.189,-0.1887,-0.1892,-0.1881,-0.1863,-0.186,-0.1885,-0.1885,-0.1886,0,-0.2139,-0.2104,-0.2079,-0.2068,-0.2039,-0.2028,-0.2015,-0.1995,-0.1981,-0.1961,-0.1952,-0.1931,-0.1919,-0.1903,-0.1889,-0.1893,-0.1861,-0.1864,-0.1854,-0.1854,-0.1847,-0.1847,-0.1826,-0.184,-0.184,-0.1841,-0.1841,0,-0.212,-0.21,-0.2077,-0.2062,-0.204,-0.2024,-0.2003,-0.199,-0.1972,-0.1954,-0.1945,-0.1929,-0.1911,-0.1893,-0.1883,-0.186,-0.1855,-0.1848,-0.1845,-0.1848,-0.1849,-0.1841,-0.1841,-0.184,-0.184,-0.184,-0.184,0,-0.2111,-0.2094,-0.2067,-0.2041,-0.2034,-0.2019,-0.1997,-0.1983,-0.197,-0.1948,-0.1942,-0.1922,-0.1901,-0.1885,-0.1858,-0.1851,-0.1826,-0.1824,-0.1833,-0.1832,-0.1822,-0.1823,-0.1794,-0.1789,-0.1808,-0.1807,-0.1807,0,-0.2099,-0.2083,-0.2056,-0.2043,-0.2031,-0.2011,-0.1997,-0.1981,-0.1967,-0.1943,-0.1931,-0.1909,-0.189,-0.1857,-0.184,-0.1819,-0.1816,-0.1807,-0.1813,-0.1816,-0.1815,-0.1816,-0.1815,-0.1806,-0.1806,-0.1806,-0.1806,0,-0.208,-0.2073,-0.2053,-0.203,-0.2014,-0.1995,-0.1977,-0.1967,-0.1949,-0.1934,-0.1911,-0.1897,-0.1869,-0.1847,-0.1824,-0.1812,-0.1806,-0.1804,-0.1801,-0.1804,-0.1809,-0.1806,-0.1831,-0.1805,-0.1805,-0.1805,-0.1805,-0.1805,-0.2069,-0.2055,-0.2033,-0.2011,-0.1996,-0.1979,-0.1964,-0.1949,-0.193,-0.1905,-0.1898,-0.1875,-0.1855,-0.1824,-0.1811,-0.1794,-0.1794,-0.1789,-0.1787,-0.1786,-0.1786,-0.1813,-0.1789,-0.1789,-0.1789,-0.1789,-0.1789,0,-0.2049,-0.2035,-0.2015,-0.1989,-0.1973,-0.1968,-0.1947,-0.1934,-0.1913,-0.1895,-0.1877,-0.1851,-0.183,-0.1812,-0.1791,-0.178,-0.1777,-0.1775,-0.1775,-0.1772,-0.1787,-0.1792,-0.1778,-0.1778,-0.1778,-0.1778,-0.1778,-0.1778,-0.2037,-0.2013,-0.2003,-0.1971,-0.1957,-0.1934,-0.1923,-0.1907,-0.1893,-0.1864,-0.1847,-0.1835,-0.1817,-0.1794,-0.1775,-0.177,-0.1762,-0.1761,-0.1756,-0.177,-0.1771,-0.1773,-0.1777,-0.176,-0.176,-0.1742,-0.1742,-0.1742]}]]